Location: Proctor
(47.8934°N, 114.3048°W)
Time: 12:25:15
(UTC+00:00)

AO-91 - Pass Details

Date: 01 July 2022
Orbit: 450 x 797 km, 97.7° (Epoch: 12 August)

Event Time Altitude Azimuth Distance (km) Brightness Sun altitude
Rises 07:20:25 0° 2° (N) 2,549 ? -18.9°
Reaches altitude 10° 07:22:46 10° 348° (NNW) 1,632 ? -18.9°
Maximum altitude 07:25:34 24° 294° (WNW) 1,003 ? -18.9°
Enters shadow 07:27:09 17° 255° (WSW) 1,221 ? -18.9°
